Location: Poughquag
(41.6090°N, 73.6820°W)
Time: 08:26:38
(UTC-05:00)

Vanguard 1 - Pass Details

Date: 05 December 2023
Orbit: 653 x 3826 km, 34.3° (Epoch: 25 February)

Event Time Altitude Azimuth Distance (km) Brightness Sun altitude
Rises 01:21:08 0° 284° (WNW) 7,929 - -62.2°
Reaches altitude 10° 01:28:22 10° 273° (W) 6,928 - -61.0°
Maximum altitude 01:43:36 23° 231° (SW) 5,383 - -58.6°
Drops below altitude 10° 01:56:04 10° 186° (S) 5,524 - -56.5°
Sets 02:01:01 0° 173° (S) 6,046 - -55.7°
